Tracking 19212 objects as of 17-Jul-2018
HD Live streaming from Space Station
objects crossing your sky now

FENGYUN 1C DEB

Track FENGYUN 1C DEB now!
10-day predictions


NORAD ID: 36654
Int'l Code: 1999-025DXY
Perigee: 519.5 km
Apogee: 727.0 km
Inclination: 99.5 °
Period: 97.0 minutes
Semi major axis: 6994 km
RCS: 0.0066 m2 (small)
Launch date: May 10, 1999
Source: People's Republic of China (PRC)
Launch site: Taiyaun Space Center, China (TSC)

Note: This is SATELLITE DEBRIS
aabbcc
Your satellite tracking list
Your tracking list is empty




NASA's NSSDC Master Catalog

Two Line Element Set (TLE):
1 36654U 99025DXY 18185.33445808 +.00002317 +00000-0 +23634-3 0  9991
2 36654 099.5262 015.3569 0148290 053.2129 308.2584 14.84192198196940
Source of the keplerian elements: AFSPC